FW3162 Weather Reports


Display with metric or nautical units.
time (UTC)temp
F
wind
direction
speed
MPH
gust
MPH
rain 1hr
in
rain 24hr
in
rain mn
in
humidity
%
barometer
mb
20260504191542 74 191 3.0 12.0 0.00 0.00 0.00 39 1009.7
20260504191042 74 152 3.0 12.0 0.00 0.00 0.00 38 1009.9
20260504190541 74 237 4.0 11.0 0.00 0.00 0.00 41 1009.8
20260504190042 74 172 4.0 11.0 0.00 0.00 0.00 38 1009.9
20260504185540 74 162 3.0 10.0 0.00 0.00 0.00 40 1009.9
20260504185038 73 206 2.0 10.0 0.00 0.00 0.00 43 1010.0
20260504184537 73 160 3.0 9.0 0.00 0.00 0.00 39 1010.1
20260504184037 73 256 4.0 11.0 0.00 0.00 0.00 38 1010.2
20260504183536 73 341 3.0 12.0 0.00 0.00 0.00 40 1010.2
20260504183041 73 191 5.0 12.0 0.00 0.00 0.00 39 1010.3
20260504182534 73 146 4.0 10.0 0.00 0.00 0.00 39 1010.3
20260504182034 73 192 3.0 10.0 0.00 0.00 0.00 39 1010.3
20260504181536 73 150 3.0 10.0 0.00 0.00 0.00 38 1010.4
20260504181032 72 195 3.0 9.0 0.00 0.00 0.00 39 1010.5
20260504180533 72 186 4.0 9.0 0.00 0.00 0.00 41 1010.6
20260504180030 72 188 3.0 11.0 0.00 0.00 0.00 40 1010.7
20260504175529 72 163 5.0 11.0 0.00 0.00 0.00 39 1010.8
20260504175030 72 286 2.0 11.0 0.00 0.00 0.00 40 1010.7
20260504174528 72 208 3.0 11.0 0.00 0.00 0.00 40 1010.8
20260504174027 72 259 3.0 11.0 0.00 0.00 0.00 39 1010.7
20260504173526 71 156 2.0 11.0 0.00 0.00 0.00 39 1010.9
20260504173026 72 299 3.0 9.0 0.00 0.00 0.00 38 1011.0
20260504172525 71 181 4.0 9.0 0.00 0.00 0.00 39 1011.0
20260504172025 71 271 2.0 10.0 0.00 0.00 0.00 38 1011.0
20260504171524 71 183 4.0 10.0 0.00 0.00 0.00 38 1011.0
20260504171024 71 143 4.0 10.0 0.00 0.00 0.00 37 1010.9
20260504170523 71 237 3.0 10.0 0.00 0.00 0.00 36 1011.0
20260504151008 66 155 2.0 8.0 0.00 0.00 0.00 53 1012.3
20260504150505 65 147 2.0 8.0 0.00 0.00 0.00 54 1012.4
20260504141059 64 292 3.0 8.0 0.00 0.00 0.00 55 1012.5
20260504140558 64 297 3.0 8.0 0.00 0.00 0.00 56 1012.6
20260504130548 60 165 1.0 9.0 0.00 0.00 0.00 63 1012.9
20260504110525 54 162 0.0 2.0 0.00 0.00 0.00 80 1013.7
20260504100523 53 165 0.0 1.0 0.00 0.00 0.00 81 1013.6
20260504081518 53 222 1.0 5.0 0.00 0.00 0.00 84 1013.7
20260504081018 53 199 0.0 3.0 0.00 0.00 0.00 84 1013.7
20260504080517 53 167 1.0 4.0 0.00 0.00 0.00 84 1013.7
20260504050551 45 231 0.0 1.0 0.00 0.00 0.00 81 1013.8
20260504045549 45 231 0.0 0.0 0.00 0.00 0.00 81 1014.0
20260504045049 45 231 0.0 1.0 0.00 0.00 0.00 80 1014.0
20260504044549 45 231 0.0 1.0 0.00 0.00 0.00 80 1014.0
20260504044048 45 231 0.0 1.0 0.00 0.00 0.00 80 1014.0
20260504043551 45 231 0.0 1.0 0.00 0.00 0.00 80 1013.9
20260504043055 45 232 0.0 0.0 0.00 0.00 0.00 80 1013.8
20260504042547 44 231 0.0 2.0 0.00 0.00 0.00 80 1013.9
20260504042049 44 231 0.0 2.0 0.00 0.00 0.00 81 1013.8
20260504041544 44 236 0.0 0.0 0.00 0.00 0.00 81 1013.7
20260504041044 44 236 0.0 0.0 0.00 0.00 0.00 80 1013.7
20260504040543 44 236 0.0 0.0 0.00 0.00 0.00 80 1013.6
20260504040044 44 236 0.0 0.0 0.00 0.00 0.00 80 1013.6
20260504035542 44 236 0.0 0.0 0.00 0.00 0.00 79 1013.6
20260504035046 44 236 0.0 0.0 0.00 0.00 0.00 79 1013.6
20260504034551 44 236 0.0 0.0 0.00 0.00 0.00 79 1013.5
20260504034041 44 236 0.0 0.0 0.00 0.00 0.00 80 1013.4
20260504033543 44 236 0.0 0.0 0.00 0.00 0.00 80 1013.4
20260504033042 44 236 0.0 0.0 0.00 0.00 0.00 80 1013.4
20260504032541 44 236 0.0 0.0 0.00 0.00 0.00 79 1013.3
20260504032045 44 236 0.0 0.0 0.00 0.00 0.00 78 1013.2
20260504031542 44 236 0.0 0.0 0.00 0.00 0.00 78 1013.3
20260504031040 45 236 0.0 0.0 0.00 0.00 0.00 77 1013.2
20260504030540 45 236 0.0 0.0 0.00 0.00 0.00 77 1013.3
20260504030046 45 236 0.0 0.0 0.00 0.00 0.00 76 1013.3
20260504025539 46 236 0.0 0.0 0.00 0.00 0.00 75 1013.2
20260504025039 46 236 0.0 0.0 0.00 0.00 0.00 75 1013.3
20260504024539 46 236 0.0 1.0 0.00 0.00 0.00 74 1013.2
20260504024038 46 236 0.0 1.0 0.00 0.00 0.00 74 1013.2
20260504023538 47 236 0.0 0.0 0.00 0.00 0.00 73 1013.3
20260504023038 47 236 0.0 1.0 0.00 0.00 0.00 72 1013.2
20260504022538 48 236 0.0 1.0 0.00 0.00 0.00 72 1013.2
20260504022038 47 236 0.0 1.0 0.00 0.00 0.00 72 1013.3
20260504021537 47 236 0.0 1.0 0.00 0.00 0.00 73 1013.2
20260504021037 47 236 0.0 0.0 0.00 0.00 0.00 72 1013.2
20260504020537 47 236 0.0 1.0 0.00 0.00 0.00 71 1013.2
20260504020043 47 236 0.0 2.0 0.00 0.00 0.00 70 1013.2
20260504015536 47 236 0.0 1.0 0.00 0.00 0.00 72 1013.2
20260504015037 47 236 0.0 1.0 0.00 0.00 0.00 71 1013.1
20260504014543 46 236 0.0 1.0 0.00 0.00 0.00 71 1013.0
20260504014036 47 236 0.0 0.0 0.00 0.00 0.00 70 1013.0
20260504013536 47 236 0.0 0.0 0.00 0.00 0.00 69 1013.0
20260504013037 47 236 0.0 0.0 0.00 0.00 0.00 69 1013.0
20260504012536 47 236 0.0 0.0 0.00 0.00 0.00 69 1012.9
20260504012041 48 236 0.0 1.0 0.00 0.00 0.00 68 1012.8
20260504011536 48 236 0.0 1.0 0.00 0.00 0.00 68 1012.8
20260504011035 48 236 0.0 1.0 0.00 0.00 0.00 67 1012.7
20260504010535 48 236 0.0 1.0 0.00 0.00 0.00 66 1012.8
20260504010035 47 236 0.0 1.0 0.00 0.00 0.00 67 1012.8
20260504005535 47 236 0.0 0.0 0.00 0.00 0.00 68 1012.8
20260504005035 47 236 0.0 0.0 0.00 0.00 0.00 65 1012.7
20260504004535 48 236 0.0 0.0 0.00 0.00 0.00 63 1012.6
20260504004035 49 236 0.0 0.0 0.00 0.00 0.00 62 1012.6
20260504003534 49 236 0.0 0.0 0.00 0.00 0.00 61 1012.5
20260504003035 50 236 0.0 0.0 0.00 0.00 0.00 60 1012.5
20260504002534 50 236 0.0 0.0 0.00 0.00 0.00 58 1012.5
20260504002034 51 236 0.0 0.0 0.00 0.00 0.00 57 1012.4
20260504001537 52 236 0.0 0.0 0.00 0.00 0.00 55 1012.4
20260504001034 53 236 0.0 0.0 0.00 0.00 0.00 53 1012.4
20260504000533 54 236 0.0 0.0 0.00 0.00 0.00 51 1012.2
20260504000037 55 236 0.0 0.0 0.00 0.00 0.00 50 1012.2
20260503235533 56 236 0.0 1.0 0.00 0.00 0.00 48 1012.1
20260503235033 57 236 0.0 1.0 0.00 0.00 0.00 47 1012.0
20260503234533 57 236 0.0 2.0 0.00 0.00 0.00 45 1012.0
20260503234036 58 236 0.0 2.0 0.00 0.00 0.00 43 1011.9
20260503233535 58 236 0.0 2.0 0.00 0.00 0.00 43 1012.0
20260503233032 58 235 0.0 3.0 0.00 0.00 0.00 42 1012.0
20260503232532 59 247 0.0 6.0 0.00 0.00 0.00 42 1011.9
20260503232032 59 201 0.0 6.0 0.00 0.00 0.00 41 1011.9
20260503231533 59 298 0.0 4.0 0.00 0.00 0.00 41 1012.0
20260503231032 60 298 0.0 3.0 0.00 0.00 0.00 40 1012.0
20260503230531 60 208 0.0 4.0 0.00 0.00 0.00 41 1012.0
20260503230032 61 284 0.0 6.0 0.00 0.00 0.00 41 1012.0
20260503225533 61 270 1.0 6.0 0.00 0.00 0.00 39 1012.0
20260503225031 61 283 1.0 9.0 0.00 0.00 0.00 40 1012.0
20260503224530 61 259 2.0 9.0 0.00 0.00 0.00 40 1012.0
20260503224030 62 263 1.0 6.0 0.00 0.00 0.00 39 1012.0
20260503223530 62 255 0.0 8.0 0.00 0.00 0.00 40 1012.0
20260503223030 62 290 2.0 8.0 0.00 0.00 0.00 39 1012.0
20260503222531 61 260 2.0 6.0 0.00 0.00 0.00 39 1012.0
20260503222032 62 302 1.0 6.0 0.00 0.00 0.00 40 1012.0
20260503221531 61 130 1.0 5.0 0.00 0.00 0.00 40 1012.1
20260503221029 62 298 1.0 8.0 0.00 0.00 0.00 40 1012.1
20260503220528 62 300 1.0 8.0 0.00 0.00 0.00 40 1012.2
20260503220028 61 215 2.0 7.0 0.00 0.00 0.00 39 1012.1
20260503215526 61 271 2.0 7.0 0.00 0.00 0.00 40 1012.2
20260503215026 61 155 2.0 7.0 0.00 0.00 0.00 40 1012.0
20260503214538 62 297 0.0 7.0 0.00 0.00 0.00 41 1012.0
20260503214025 61 322 2.0 9.0 0.00 0.00 0.00 40 1012.1
20260503213525 61 297 3.0 9.0 0.00 0.00 0.00 40 1012.1
20260503213025 61 107 1.0 11.0 0.00 0.00 0.00 40 1012.2
20260503212526 61 250 3.0 11.0 0.00 0.00 0.00 39 1012.1
20260503212025 61 295 3.0 15.0 0.00 0.00 0.00 40 1012.1
20260503211525 61 133 4.0 15.0 0.00 0.00 0.00 41 1012.0
20260503211024 61 276 4.0 10.0 0.00 0.00 0.00 40 1012.1
20260503210524 61 121 3.0 9.0 0.00 0.00 0.00 40 1012.1
20260503210024 61 303 2.0 10.0 0.00 0.00 0.00 42 1012.0
20260503205524 61 273 4.0 10.0 0.00 0.00 0.00 40 1012.1
20260503205024 61 276 2.0 7.0 0.00 0.00 0.00 41 1012.1
20260503204523 61 166 3.0 8.0 0.00 0.00 0.00 41 1012.1
20260503204026 61 275 2.0 10.0 0.00 0.00 0.00 42 1012.1
20260503203526 61 276 2.0 10.0 0.00 0.00 0.00 42 1012.2
20260503203022 61 70 2.0 10.0 0.00 0.00 0.00 43 1012.3
20260503202522 60 264 3.0 13.0 0.00 0.00 0.00 42 1012.3
20260503202022 60 281 4.0 13.0 0.00 0.00 0.00 41 1012.5
20260503201521 61 304 2.0 9.0 0.00 0.00 0.00 42 1012.5
20260503201025 60 51 2.0 9.0 0.00 0.00 0.00 43 1012.6
20260503200521 60 54 2.0 12.0 0.00 0.00 0.00 42 1012.7
20260503200027 60 16 4.0 12.0 0.00 0.00 0.00 40 1012.6
20260503195519 60 260 3.0 10.0 0.00 0.00 0.00 42 1012.7
20260503195020 60 115 2.0 11.0 0.00 0.00 0.00 44 1012.8
20260503194519 60 245 3.0 11.0 0.00 0.00 0.00 42 1012.7
20260503194019 59 125 5.0 12.0 0.00 0.00 0.00 42 1012.7
20260503193519 59 167 4.0 12.0 0.00 0.00 0.00 42 1012.8
20260503193018 60 301 4.0 10.0 0.00 0.00 0.00 41 1013.0
20260503192518 59 243 2.0 11.0 0.00 0.00 0.00 44 1012.9
20260503192018 60 36 3.0 11.0 0.00 0.00 0.00 40 1013.0